Flight Track Log - Related Links

Times and Time Zones

All times are in EDT time to prevent confusion due to time zone crossing. See the N72WP flight status page for this flight to view local times or setup timezone preferences in your user account.

Time Position Orientation Groundspeed Altitude Reporting Facility
EDT Latitude Longitude Course Direction KTS MPH feet Rate Location/Type
Tue 07:47:03 PM 30.3278 -81.5064 262° West 71 82 200  Level Jacksonville Center
Tue 07:48:47 PM 30.3222 -81.5547 262° West 126 145 1,000 491 Climbing Jacksonville Center
Tue 07:49:42 PM 30.3308 -81.5931 285° West 132 152 1,500 645 Climbing Jacksonville Center
Tue 07:50:48 PM 30.3333 -81.6386 274° West 129 148 2,300 661 Climbing Jacksonville Center
Tue 07:51:49 PM 30.3589 -81.6719 312° West 134 154 2,900 590 Climbing Jacksonville Center
Tue 07:52:50 PM 30.3861 -81.6981 320° Northwest 144 166 3,500 541 Climbing Jacksonville Center
Tue 07:53:51 PM 30.4200 -81.7267 324° Northwest 148 170 4,000 393 Climbing Jacksonville Center
Tue 07:54:52 PM 30.4556 -81.7600 321° Northwest 160 184 4,300 443 Climbing Jacksonville Center
Tue 07:55:53 PM 30.4914 -81.7908 323° Northwest 150 173 4,900 563 Climbing Jacksonville Center
Tue 07:57:00 PM 30.5314 -81.8217 326° Northwest 151 174 5,500 541 Climbing Jacksonville Center
Tue 07:57:55 PM 30.5628 -81.8456 327° Northwest 152 175 6,000 517 Climbing Jacksonville Center
Tue 07:58:56 PM 30.5986 -81.8742 326° Northwest 151 174 6,500 443 Climbing Jacksonville Center
Tue 07:59:57 PM 30.6344 -81.9028 326° Northwest 156 180 6,900 453 Climbing Jacksonville Center
Tue 08:00:42 PM 30.6553 -81.9242 319° Northwest 158 182 7,300 522 Climbing Jacksonville Center
Tue 08:01:52 PM 30.7017 -81.9625 325° Northwest 156 180 7,900 500 Climbing Jacksonville Center
Tue 08:02:42 PM 30.7247 -81.9839 321° Northwest 158 182 8,300 517 Climbing Jacksonville Center
Tue 08:03:48 PM 30.7667 -82.0172 326° Northwest 153 176 8,900 400 Climbing Jacksonville Center
Tue 08:04:42 PM 30.7981 -82.0414 327° Northwest 177 204 9,100 105 Climbing Jacksonville Center
Tue 08:05:42 PM 30.8403 -82.0747 326° Northwest 172 198 9,100  Level Jacksonville Center
Tue 08:06:42 PM 30.8800 -82.1083 324° Northwest 172 198 9,100  Level Jacksonville Center
Tue 08:07:42 PM 30.9200 -82.1419 324° Northwest 172 198 9,100  Level Jacksonville Center
Tue 08:08:42 PM 30.9597 -82.1756 324° Northwest 172 198 9,100  Level Jacksonville Center
Tue 08:09:42 PM 31.0017 -82.2092 326° Northwest 177 204 9,100  Level Jacksonville Center
Tue 08:10:42 PM 31.0417 -82.2453 322° Northwest 177 204 9,100 100 Level Jacksonville Center
Tue 08:11:42 PM 31.0814 -82.2739 328° Northwest 172 198 9,300 250 Climbing Jacksonville Center
Tue 08:12:42 PM 31.1211 -82.3028 328° Northwest 172 198 9,600 250 Climbing Jacksonville Center
Tue 08:13:42 PM 31.1589 -82.3294 329° Northwest 172 198 9,800 200 Climbing Jacksonville Center
Tue 08:14:42 PM 31.1967 -82.3583 327° Northwest 172 198 10,000 100 Climbing Jacksonville Center
Tue 08:15:42 PM 31.2386 -82.3872 330° Northwest 172 198 10,000  Level Jacksonville Center
Tue 08:16:42 PM 31.2825 -82.4161 331° Northwest 172 198 10,000 -50 Level Jacksonville Center
Tue 08:17:42 PM 31.3244 -82.4475 327° Northwest 172 198 9,900 -50 Descending Jacksonville Center
Tue 08:18:42 PM 31.3725 -82.4789 331° Northwest 172 198 9,900 50 Level Jacksonville Center
Tue 08:19:42 PM 31.4164 -82.5081 330° Northwest 172 198 10,000 50 Climbing Jacksonville Center
Tue 08:20:42 PM 31.4603 -82.5369 331° Northwest 177 204 10,000 -50 Level Jacksonville Center
Tue 08:21:42 PM 31.5042 -82.5683 329° Northwest 177 204 9,900 -50 Descending Jacksonville Center
Tue 08:22:42 PM 31.5481 -82.6000 328° Northwest 182 209 9,900 50 Level Jacksonville Center
Tue 08:23:42 PM 31.5922 -82.6317 329° Northwest 187 215 10,000 50 Climbing Jacksonville Center
Tue 08:24:42 PM 31.6361 -82.6633 328° Northwest 187 215 10,000 -50 Level Jacksonville Center
Tue 08:25:42 PM 31.6800 -82.6925 331° Northwest 187 215 9,900 -50 Descending Jacksonville Center
Tue 08:26:42 PM 31.7239 -82.7242 328° Northwest 187 215 9,900 50 Level Jacksonville Center
Tue 08:27:42 PM 31.7678 -82.7533 331° Northwest 187 215 10,000  Climbing Jacksonville Center
Tue 08:28:42 PM 31.8117 -82.7875 327° Northwest 187 215 9,900 -50 Descending Jacksonville Center
Tue 08:29:42 PM 31.8556 -82.8192 329° Northwest 187 215 9,900 50 Level Jacksonville Center
Tue 08:30:42 PM 31.8992 -82.8486 330° Northwest 187 215 10,000  Climbing Jacksonville Center
Tue 08:31:42 PM 31.9411 -82.8803 327° Northwest 192 221 9,900  Descending Jacksonville Center
Tue 08:32:42 PM 31.9869 -82.9122 329° Northwest 192 221 10,000 32 Climbing Jacksonville Center
Tue 08:34:52 PM 32.0833 -82.9833 328° Northwest 183 211 10,000 -32 Level Atlanta TRACON
Tue 08:35:52 PM 32.1333 -83.0167 331° Northwest 186 214 9,900 -50 Descending Atlanta TRACON
Tue 08:36:52 PM 32.1667 -83.0500 320° Northwest 187 215 9,900 48 Level Atlanta TRACON
Tue 08:37:58 PM 32.2167 -83.0667 344° North 186 214 10,000  Climbing Atlanta TRACON
Tue 08:39:04 PM 32.2667 -83.1000 331° Northwest 186 214 9,900  Descending Atlanta TRACON
Tue 08:39:58 PM 32.3167 -83.1167 344° North 184 212 10,000 53 Climbing Atlanta TRACON
Tue 08:40:58 PM 32.3667 -83.1500 331° Northwest 186 214 10,000 -50 Level Atlanta TRACON
Tue 08:41:58 PM 32.4167 -83.1667 344° North 186 214 9,900 -50 Descending Atlanta TRACON
Tue 08:42:58 PM 32.4667 -83.1833 344° North 187 215 9,900  Level Atlanta TRACON
Tue 08:43:58 PM 32.5000 -83.2167 320° Northwest 184 212 9,900  Level Atlanta TRACON
Tue 08:44:58 PM 32.5500 -83.2333 344° North 188 216 9,900 50 Level Atlanta TRACON
Tue 08:45:58 PM 32.6000 -83.2667 331° Northwest 185 213 10,000  Climbing Atlanta TRACON
Tue 08:46:52 PM 32.6500 -83.2833 344° North 186 214 9,900 -53 Descending Atlanta TRACON
Tue 08:47:52 PM 32.6833 -83.3000 337° Northwest 185 213 9,900  Level Atlanta TRACON
Tue 08:48:46 PM 32.7333 -83.3333 331° Northwest 182 209 9,900  Level Atlanta TRACON
Tue 08:49:52 PM 32.7833 -83.3500 344° North 183 211 9,900 48 Level Atlanta TRACON
Tue 08:50:52 PM 32.8333 -83.3833 331° Northwest 183 211 10,000  Climbing Atlanta TRACON
Tue 08:51:52 PM 32.8833 -83.4000 344° North 182 209 9,900 -150 Descending Atlanta TRACON
Tue 08:52:52 PM 32.9333 -83.4333 331° Northwest 193 222 9,700 -316 Descending Atlanta TRACON
Tue 08:53:46 PM 32.9667 -83.4500 337° Northwest 201 231 9,300 -421 Descending Atlanta TRACON
Tue 08:54:46 PM 33.0167 -83.4833 331° Northwest 204 235 8,900 -450 Descending Atlanta TRACON
Tue 08:55:46 PM 33.0833 -83.5000 348° North 198 228 8,400 -455 Descending Atlanta TRACON
Tue 08:56:58 PM 33.1333 -83.5333 331° Northwest 204 235 7,900 -455 Descending Atlanta TRACON
Tue 08:57:58 PM 33.1833 -83.5667 331° Northwest 201 231 7,400 -350 Descending Atlanta TRACON
Tue 08:58:58 PM 33.2333 -83.5833 344° North 195 224 7,200 -368 Descending Atlanta TRACON
Tue 08:59:52 PM 33.2833 -83.6167 331° Northwest 197 227 6,700 -474 Descending Atlanta TRACON
Tue 09:00:52 PM 33.3333 -83.6333 344° North 199 229 6,300 -300 Descending Atlanta TRACON
Tue 09:01:52 PM 33.3833 -83.6667 331° Northwest 194 223 6,100 -150 Descending Atlanta TRACON
Tue 09:02:52 PM 33.4167 -83.7000 320° Northwest 183 211 6,000 -50 Descending Atlanta TRACON
Tue 09:03:52 PM 33.4667 -83.7333 331° Northwest 175 201 6,000 -200 Level Atlanta TRACON
Tue 09:04:52 PM 33.5000 -83.7667 320° Northwest 184 212 5,600 -450 Descending Atlanta TRACON
Tue 09:05:52 PM 33.5500 -83.8000 331° Northwest 194 223 5,100 -450 Descending Atlanta TRACON
Tue 09:06:52 PM 33.6000 -83.8333 331° Northwest 192 221 4,700 -500 Descending Atlanta TRACON
Tue 09:07:52 PM 33.6333 -83.8667 320° Northwest 193 222 4,100 -368 Descending Atlanta TRACON
Tue 09:08:46 PM 33.6833 -83.9000 331° Northwest 189 217 4,000 -53 Descending Atlanta TRACON
Tue 09:09:46 PM 33.7167 -83.9500 309° West 179 206 4,000 -50 Level Atlanta TRACON
Tue 09:10:46 PM 33.7500 -83.9833 320° Northwest 177 204 3,900 -50 Descending Atlanta TRACON
Tue 09:11:46 PM 33.8000 -84.0167 331° Northwest 177 204 3,900  Level Atlanta TRACON
Tue 09:12:46 PM 33.8333 -84.0500 320° Northwest 175 201 3,900 -300 Level Atlanta TRACON
Tue 09:13:46 PM 33.8667 -84.0833 320° Northwest 204 235 3,300 -409 Descending Atlanta TRACON
Tue 09:14:58 PM 33.8833 -84.1500 287° West 185 213 3,000 -190 Descending Atlanta TRACON
Tue 09:15:52 PM 33.8833 -84.2167 270° West 179 206 2,900 -368 Descending Atlanta TRACON
Tue 09:16:52 PM 33.9000 -84.2667 292° West 177 204 2,300 -550 Descending Atlanta TRACON
Tue 09:17:52 PM 33.9167 -84.2833 320° Northwest 138 159 1,800 -500 Descending Atlanta TRACON
Tue 09:19:00 PM 33.8756 -84.3020 262° West  Level Estimated
Tue 09:26:00 PM 33.8756 -84.3020 262° West  Level Estimated
Tue 09:27:00 PM 33.8756 -84.3020 262° West  Level Estimated

Login

Don't have an account? Register now (free) for customized features, flight alerts, and more!